Rbgn^[z[y[W
メイン
   新天体発見情報
     Comet P/2023 X5 = 2017 O4 (Hogan)
投稿するにはまず登録を

スレッド表示 | 新しいものから 前のトピック | 次のトピック | 下へ
投稿者 スレッド
佐藤裕久
投稿日時: 2024-2-3 17:47
モデレータ
登録日: 2005-6-12
居住地: 日本
投稿: 2629
オンライン
Comet P/2023 X5 = 2017 O4 (Hogan)

Joshua K. Hogan (月惑星研究所:LPL, アリゾナ大学)の通報によると、12月13日、Mt Lemmon 
サーベイの1.5-m 反射望遠鏡で得た30-秒CCD露出から長い尾のある彗星を発見した。
MPEC 2024-B74に追加観測が掲載されたが、"P/2023 S4"と誤って付与された。
発見前の2023年9月25日のMt Lemmonの観測は、小惑星センターの"isolated tracklet file" 
の中で見っかったものて不注意に発見観測とされた。
この彗星観測は、後に2023年11月8日、HaleakalaにあるPan-STARRS1 1.8-m Ritchey-Chretien 
反射望遠鏡で得た画像から、MPCのITFで見つかった。
小惑星センターのPCCP webpageに公表後、R. Weryk (西オンタリオ大学,物理および天文学科)は、
2023年12月4.33-4.37日UT、Pan-STARRS1望遠鏡で得た彗星画像を同定した。
1".1のシーイングで得た4枚の45-秒Wバンドサーベイ画像は、1".2の非常に集光したコマとp.a. 
260°に少なくとも30"の尾がある。
R. Werykは、さらにHaleakalaにあるPan-STARRS2 1.8-m Ritchey-Chretien 反射望遠鏡による
追加観測を確認した。
佐藤英貴氏(東京都文京区,2023年12月19.1日UT、60-秒CCD露出12枚のスタック, "Deep Sky Chile" 
0.51-m f/6.8 アストログラフ, Rio Hurtado, チリ, 遠隔操作:中程度に集光した5" のコマが見え、
p.a. 290°に向かって5" の尾の気配がある。2".8の円形範囲で測定した光度は20.4等であった)
らCCD位置観測者によって彗星状と観測された。

彗星機能の報告は次のとおり、

OC   Date        Reporter           Coma    Tail    PA          Exposures
F51  2023-12-04  R. Weryk           0".1     30"    260           4x45s
I52  2023-12-17  G. J. Leonard      6"       15"    260
X07  2023-12-19  H. Sato            5"        5"    290          12x60s
W62  2023-12-20  J. Maikner         4"       10"    235          80x120s
F51  2023-01-01  R. Weryk           0".4     20"    260           4x45s

発見位置は次のとおり、

     2023 UT             R.A. (2000) Decl.       Mag.   Observer
     Dec. 15.25302    4 51 18.60   +23 51 38.0   20.0   Hogan
          15.25819    4 51 18.32   +23 51 37.6   20.4     "
          15.26339    4 51 17.99   +23 51 36.9   20.1     "
          15.26856    4 51 17.74   +23 51 36.9   20.3     "

MPCの楕円軌道要素、位置推算表は次のとおり、

Orbital elements:
    P/2023 X5 (Hogan)     P/2023 S4ではない。
Epoch 2023 Sept. 13.0 TT = JDT 2460200.5                                        
T 2023 July 16.62827 TT                                 Rudenko                 
q   2.5415671            (2000.0)            P               Q                  
n   0.17766596     Peri.   11.42155     +0.78578970     -0.61843352             
a   3.1337660      Node    26.78619     +0.56593739     +0.71331694             
e   0.1889735      Incl.    1.09759     +0.24949832     +0.32972552             
P   5.55                                                                        
From 120 observations 2005 June 14-2024 Jan. 17, mean residual 0".4.            
                                                                                
Ephemeris:
Date    TT    R. A. (2000) Decl.     Delta      r    Elong.  Phase   m1
2023 12 21    04 46 25.6 +23 44 09   1.6814  2.6429   164.6     5.7  20.8
...
2024 01 05    04 36 36.8 +23 25 35   1.7820  2.6619   147.1    11.6  21.0
...
2024 01 13    04 33 41.1 +23 18 28   1.8569  2.6725   138.3    14.2  21.1
...
2024 01 19    04 32 41.3 +23 15 10   1.9212  2.6807   132.0    15.8  21.2
2024 01 20    04 32 37.5 +23 14 49   1.9325  2.6821   130.9    16.1  21.2
2024 01 21    04 32 35.3 +23 14 30   1.9440  2.6835   129.9    16.3  21.2
...
2024 01 27    04 32 58.1 +23 13 47   2.0159  2.6919   123.9    17.7  21.3
...
2024 02 04    04 35 00.6 +23 15 45   2.1191  2.7034   116.2    19.1  21.4
...
2024 02 19    04 43 10.3 +23 27 09   2.3288  2.7259   102.9    20.7  21.7

(MPEC 2024-B74、CBET 5341、oaa-comet 6202)

スレッド表示 | 新しいものから 前のトピック | 次のトピック | トップ

投稿するにはまず登録を
 
© 1999 Tsutomu Seki.